Regional Weather Roundup
Issued by NWS

Home | Current Version | Previous Version | Text Only | Print | Product List | Glossary Off
Versions: 1 2 3 4 5 6 7 8 9 10 11 12 13 14 15 16 17 18 19 20 21 22 23 24 25 26 27 28 29 30 31 32 33 34 35 36 37 38 39 40 41 42 43 44 45 46 47 48 49 50

000
ASUS43 KBIS 071002
RWRND

NORTH DAKOTA REGIONAL WEATHER ROUNDUP
NATIONAL WEATHER SERVICE BISMARCK ND
500 AM CDT TUE JUL 07 2015

NOTE: "FAIR" INDICATES FEW OR NO CLOUDS BELOW 12,000 FEET WITH NO
SIGNIFICANT WEATHER AND/OR OBSTRUCTIONS TO VISIBILITY.


NDZ001>003-009>011-017-071100-
NORTHWEST NORTH DAKOTA

CITY           SKY/WX    TMP DP  RH WIND       PRES   REMARKS
WILLISTON      CLEAR     52  48  86 CALM      30.15F
MINOT          CLEAR     50  44  80 CALM      30.16F
$$

NDZ018>021-031>035-040>046-071100-
SOUTHWEST NORTH DAKOTA

CITY           SKY/WX    TMP DP  RH WIND       PRES   REMARKS
BISMARCK       CLEAR     46  45  96 NE3       30.20S
DICKINSON      PTCLDY    50  47  89 SE8       30.16F FOG
GARRISON         N/A     48  45  89 CALM      30.17F
HETTINGER ARPT CLEAR     51  49  92 E7        30.19F FOG
$$

NDZ004>008-012>016-024-026-027-054-071100-
NORTHEAST NORTH DAKOTA

CITY           SKY/WX    TMP DP  RH WIND       PRES   REMARKS
GRAND FORKS    CLEAR     44  42  93 SW3       30.17S
GRND FRKS AFB  CLEAR     44  42  93 W5        30.17S
DEVILS LAKE    CLEAR     55  45  67 S10       30.17S
$$

NDZ022-023-025-028>030-036>039-047>053-071100-
SOUTHEAST NORTH DAKOTA

CITY           SKY/WX    TMP DP  RH WIND       PRES   REMARKS
FARGO          CLEAR     46  42  86 CALM      30.18S
JAMESTOWN      CLEAR     49  46  90 CALM      30.19F
$$




USA.gov is the U.S. government's official web portal to all federal, state and local government web resources and services.